Theta_e
361 358 355 354 348 347 348 346 346 346 347 348 345 343 345 343 342 344 341 343 343 337
360 359 355 353 349 348 349 343 345 345 346 344 340 343 345 340 342 343 343 342 343 340
358 358 357 352 346 346 346 344 344 344 343 341 340 341 344 341 341 341 340 339 341 341
356 354 355 350 343 342 344 343 343 343 341 341 340 341 342 342 341 339 340 342 341 341
354 353 346 348 342 345 335 342 342 342 341 341 340 341 341 340 337 338 338 339 340 340
349 347 350 340 340 340 340 341 339 340 340 340 340 342 342 340 338 339 339 339 339 338
349 350 342 340 343 340 337 339 340 339 341 340 341 340 339 337 338 339 338 339 339 339
349 348 349 343 336 333 334 335 336 337 338 339 338 335 337 338 338 339 338 339 340 340
351 347 346 341 338 333 332 332 334 333 334 337 334 327 327 334 337 339 339 337 339 338
350 346 344 341 340 337 334 332 333 332 332 338 339 325 324 328 336 338 338 338 337 334
349 346 343 342 341 338 334 338 332 334 337 340 339 322 320 325 335 337 338 337 336 334
348 345 343 342 338 341 337 335 337 336 337 337 337 321 319 326 331 333 333 337 334 331
349 346 343 341 337 339 338 335 336 336 339 333 340 318 316 323 329 328 329 332 329 318
347 346 345 339 339 338 337 332 332 336 338 335 333 332 314 315 334 328 327 328 326 327
Wind_Speed
15 11 10 11 8 9 8 9 8 8 8 8 7 6 6 5 5 4 5 7 6 5
14 14 12 11 10 9 10 8 8 10 10 9 9 8 7 5 5 5 6 6 7 7
16 15 12 11 11 11 10 10 10 10 10 10 9 7 6 6 6 6 6 6 7 7
15 13 12 11 11 12 11 12 11 12 11 10 9 8 7 7 7 8 8 7 7 8
17 16 16 18 11 11 10 12 12 12 11 11 10 9 9 9 8 9 9 9 7 8
18 17 17 14 13 14 12 10 11 10 11 10 10 10 10 9 10 9 9 9 8 9
19 19 17 14 13 11 7 10 10 11 11 9 10 10 9 9 9 9 9 9 9 10
16 14 13 12 10 11 12 10 8 7 8 10 11 9 10 10 10 10 10 9 8 9
14 14 14 14 15 15 14 15 10 11 7 9 9 9 11 10 9 9 10 10 8 8
14 15 16 17 17 18 17 15 15 13 13 13 13 10 12 11 8 10 9 9 9 8
13 15 16 17 19 17 13 13 14 14 15 13 11 7 5 3 8 9 10 8 9 8
15 16 17 18 17 15 12 11 11 8 9 10 10 12 10 6 2 8 9 9 6 6
13 14 15 14 13 11 8 7 8 8 9 13 11 11 15 11 6 7 8 7 5 7
13 14 14 12 10 10 10 8 6 7 9 6 5 6 6 10 5 5 7 7 5 3
Wind_Direction
208 207 205 203 201 202 203 199 189 194 199 197 196 192 195 212 223 204 212 223 223 238
205 209 205 199 204 203 199 189 189 189 190 193 189 193 196 217 213 214 223 238 237 239
205 205 202 192 198 208 201 194 184 187 196 197 196 199 210 218 217 222 231 237 237 245
203 198 198 213 199 182 199 192 194 190 200 201 202 201 212 235 247 240 247 246 245 254
198 195 191 189 199 218 172 208 198 195 200 204 207 205 215 232 246 240 248 254 251 263
204 201 205 197 176 193 165 201 215 211 203 203 214 217 219 226 236 238 248 255 257 260
206 204 196 186 186 174 158 184 209 213 213 212 220 224 224 227 236 243 246 254 251 253
211 208 199 176 126 111 82 333 295 234 221 215 222 221 217 229 235 247 257 253 249 244
209 197 181 170 160 148 179 177 247 254 228 238 232 210 214 228 249 256 261 267 257 246
203 193 181 170 174 171 193 196 197 209 212 222 230 206 215 209 250 258 254 256 258 261
201 195 186 178 180 182 208 187 203 207 214 219 227 211 223 351 279 276 271 264 259 261
201 194 188 186 180 188 198 213 208 210 207 210 215 181 176 175 281 293 278 269 253 239
197 197 192 196 186 195 202 193 175 165 192 204 204 176 185 171 163 215 263 250 228 214
189 191 183 166 158 162 164 154 157 167 202 208 233 216 153 163 178 209 249 246 228 219